Regional Weather Roundup
Issued by NWS Sterling, VA

Home | Current Version | Previous Version | Text Only | Print | Product List | Glossary Off
Versions: 1 2 3 4 5 6 7 8 9 10 11 12 13 14 15 16 17 18 19 20 21 22 23 24 25 26 27 28 29 30 31 32 33 34 35 36 37 38 39 40 41 42 43 44 45 46 47 48 49 50

000
ASUS41 KLWX 250610
RWRLWX

REGIONAL WEATHER ROUNDUP
NATIONAL WEATHER SERVICE BALTIMORE MD/WASHINGTON DC
200 AM EDT FRI JUL 25 2014

Note: "FAIR" indicates few or no clouds below 12,000 feet
with no significant weather and/or obstructions to visibility.
 TC=TEMPERATURE CELSIUS

 * =Non NWS site. Station does not report precipitation (e.g. rain,
    snow, etc.), thunder, or fog.

DCZ001-MDZ009-015-VAZ040>042-051-053>054-250700-
WASHINGTON METRO
  /KDAA//-FT BELVOIR

CITY           SKY/WX    TMP DP  RH WIND       PRES   REMARKS
WASHINGTON NAT CLEAR     70  56  61 N7        29.99R
DULLES         PTCLDY    59  57  93 NW3       30.00R
ANDREWS AFB    CLEAR     65  56  73 N9        29.98R
QUANTICO       CLEAR     65  62  90 NW9       29.99R
COLLEGE PARK*  CLEAR     63  61  94 CALM      29.98R
LEESBURG*      CLEAR     63  61  94 N5        30.01S
MANASSAS*      CLEAR     61  61 100 CALM      30.00R
GAITHERSBURG*  CLEAR     59  55  88 CALM      30.04R

$$

MDZ006>007-011-014-250700-
BALTIMORE METRO

CITY           SKY/WX    TMP DP  RH WIND       PRES   REMARKS
BWI AIRPORT    PTCLDY    66  54  65 N3        29.98R
MD SCIENCE CTR   N/A     70  54  56 MISG      29.98R
MARTIN STATE   CLEAR     64  55  72 NW3       29.99R
ANNAPOLIS      MOCLDY    72  59  63 N9        29.97R
FORT MEADE*    CLEAR     59  55  88 CALM      30.01R

$$

MDZ012-015-019>023-250700-
MARYLAND EASTERN SHORE

CITY           SKY/WX    TMP DP  RH WIND       PRES   REMARKS
OCEAN CITY     CLOUDY    70  66  87 NW6       29.91S
SALISBURY      NOT AVBL
BAY BRIDGE AP*   N/A     72  55  56 N7        29.97R
CAMBRIDGE*     CLOUDY    72  55  56 N8        29.95R
EASTON*        MOCLDY    69  61  75 NE3       29.99R

$$

MDZ017>025-250700-
SOUTHERN MARYLAND

CITY           SKY/WX    TMP DP  RH WIND       PRES   REMARKS
PATUXENT RIVER CLOUDY    70  62  76 NW8       29.95R
ST INIGOES     CLOUDY    71  62  73 VRB5      29.95R
LEONARDTOWN*   PTCLDY    64  59  82 CALM      29.99R

$$

MDZ003>005-250700-
NORTH CENTRAL MARYLAND

CITY           SKY/WX    TMP DP  RH WIND       PRES   REMARKS
FREDERICK*     FOG       59  59 100 CALM      30.03S VSB 3/4
HAGERSTOWN APT CLEAR     63  54  72 N8        30.02R
WESTMINSTER*   PTCLDY    59  57  94 CALM      30.01S

$$

MDZ501>502-250700-
WESTERN MARYLAND

CITY           SKY/WX    TMP DP  RH WIND       PRES   REMARKS
OAKLAND*       PTCLDY    54  54 100 N3        30.10F
CUMBERLAND*    CLEAR     61  55  82 CALM      30.07S

$$

VAZ025>031-250700-
SHENANDOAH VALLEY

CITY           SKY/WX    TMP DP  RH WIND       PRES   REMARKS
WINCHESTER*    CLOUDY    63  55  77 NW3       30.01F
STAUNTON*      MOCLDY    66  64  91 CALM      30.05F FOG

$$

WVZ021-048>050-054>055-250700-
EASTERN WEST VIRGINIA PANHANDLE

CITY           SKY/WX    TMP DP  RH WIND       PRES   REMARKS
MARTINSBURG    CLEAR     60  55  83 CALM      30.02S
PETERSBURG*    PTCLDY    58  55  88 CALM      30.05F FOG

$$

VAZ036>039-050-250700-
CENTRAL FOOTHILLS

CITY           SKY/WX    TMP DP  RH WIND       PRES   REMARKS
CHARLOTTESVILL FOG       64  64 100 CALM      30.01R VSB 1/2
ORANGE*        CLEAR     63  63 100 CALM      30.02R

$$

VAZ055>057-250700-
NORTH AND CENTRAL PIEDMONT

CITY           SKY/WX    TMP DP  RH WIND       PRES   REMARKS
FREDERICKSBRG* CLEAR     66  66 100 NW3       29.99R
STAFFORD*      CLEAR     63  63 100 NW6       30.03R

$$

NCZ024-NYZ072-PAZ021-071-VAZ022-071-250700-
OTHER REGIONAL OBSERVATIONS

CITY           SKY/WX    TMP DP  RH WIND       PRES   REMARKS
NEW YORK CITY  MOCLDY    69  52  54 CALM      29.96R
PHILADELPHIA   PTCLDY    69  52  54 N7        29.96R
PITTSBURGH     CLEAR     58  51  78 CALM      30.07F
ROANOKE        HVY RAIN  67  65  93 E3        30.06R FOG
RICHMOND       PTCLDY    69  66  90 NW7       29.98R
RALEIGH        PTCLDY    67  65  93 NE3       29.99S

$$

ANZ530>537-250700-
MARINE OBSERVATIONS

STATION/POSITION TIME  TEMP    WIND        PRES
                       AIR SEA DIR/SP/G
                 (UTC) (F)     (DEG/KT/KT) (MB)
THOMAS PT LIGHT  0600   73 79  350/ 14/ 16 1015.0R
BALT KEY BRIDGE  0600   71     350/ 10/ 12 1014.6S
COVE POINT       0600   75      20/ 15/ 19 1014.0R
LEWISETTA        0600   71 80  310/  8/ 10 1014.1R
SOLOMONS ISLAND  0600      80                N/A
PINEY POINT      0600          360/ 12/ 14   N/A

$$




USA.gov is the U.S. government's official web portal to all federal, state and local government web resources and services.